Weather History for Southern Pines, NC

Change the Weather History Date:

Friday, March 21, 2014

  Actual Average Record
Temperature  
Mean Temperature 48 °F -  
Max Temperature 69 °F 62 °F 77 °F (2011)
Min Temperature 28 °F 40 °F 26 °F (1981)
Degree Days  
Heating Degree Days 16    
Moisture  
Dew Point 26 °F    
Average Humidity 41    
Maximum Humidity 86    
Minimum Humidity 18    
Precipitation  
Precipitation 0.00 in - - ()
Sea Level Pressure  
Sea Level Pressure 30.10 in    
Wind  
Wind Speed 2 mph (SSW)    
Max Wind Speed 12 mph    
Max Gust Speed 16 mph    
Visibility 10 miles    
Events      
Averages and records for this station are not official NWS values.
T = Trace of Precipitation, MM = Missing Value Source: NWS Daily Summary

Daily Weather History Graph

Daily Weather History Graph

Search for Another Location

Airport:

Trip Planner

Search our weather history database for the weather conditions in past years. The results will help you decide how hot, cold, wet, or windy it might be!

Date:

Astronomy

Mar. 21, 2014 Rise Set
Actual Time 7:19 AM EDT 7:30 PM EDT
Civil Twilight 6:54 AM EDT 7:55 PM EDT
Nautical Twilight 6:24 AM EDT 8:25 PM EDT
Astronomical Twilight 5:54 AM EDT 8:55 PM EDT
Moon No Moon Rise 10:20 AM EDT (3/21)
Length of Visible Light 13h 00m
Length of Day
12h 10m
Waning Gibbous, 75% of the Moon is Illuminated
Mar 21
Waning Gibbous
Mar 23
Last Quarter
Mar 30
New
Apr 7
First Quarter
Apr 15
Full

Hourly Weather History & Observations

Time (EDT) Temp. Dew Point Humidity Pressure Visibility Wind Dir Wind Speed Gust Speed Precip Events Conditions
12:15 AM 39.2 °F 28.4 °F 65% 30.04 in 10.0 mi Calm Calm - N/A   Clear
12:35 AM 37.4 °F 28.4 °F 70% 30.05 in 10.0 mi Calm Calm - N/A   Clear
12:55 AM 44.6 °F 24.8 °F 46% 30.06 in 10.0 mi Calm Calm - N/A   Clear
1:15 AM 44.6 °F 24.8 °F 46% 30.07 in 10.0 mi Calm Calm - N/A   Clear
1:35 AM 42.8 °F 23.0 °F 46% 30.07 in 10.0 mi Calm Calm - N/A   Clear
1:55 AM 41.0 °F 23.0 °F 49% 30.08 in 10.0 mi Calm Calm - N/A   Clear
2:15 AM 42.8 °F 21.2 °F 42% 30.09 in 10.0 mi Calm Calm - N/A   Clear
2:35 AM 42.8 °F 21.2 °F 42% 30.09 in 10.0 mi Calm Calm - N/A   Clear
2:55 AM 39.2 °F 21.2 °F 49% 30.09 in 10.0 mi Calm Calm - N/A   Clear
3:15 AM 37.4 °F 23.0 °F 56% 30.09 in 10.0 mi Calm Calm - N/A   Clear
3:35 AM 37.4 °F 24.8 °F 60% 30.09 in 10.0 mi Calm Calm - N/A   Clear
3:55 AM 37.4 °F 24.8 °F 60% 30.08 in 10.0 mi Calm Calm - N/A   Clear
4:15 AM 35.6 °F 24.8 °F 65% 30.09 in 10.0 mi Calm Calm - N/A   Clear
4:35 AM 33.8 °F 23.0 °F 65% 30.09 in 10.0 mi Calm Calm - N/A   Clear
4:55 AM 33.8 °F 24.8 °F 70% 30.09 in 10.0 mi Calm Calm - N/A   Clear
5:15 AM 32.0 °F 23.0 °F 69% 30.10 in 10.0 mi Calm Calm - N/A   Clear
5:35 AM 32.0 °F 21.2 °F 64% 30.10 in 10.0 mi Calm Calm - N/A   Clear
5:55 AM 30.2 °F 21.2 °F 69% 30.11 in 10.0 mi Calm Calm - N/A   Clear
6:15 AM 30.2 °F 24.8 °F 80% 30.12 in 10.0 mi Calm Calm - N/A   Clear
6:35 AM 30.2 °F 24.8 °F 80% 30.12 in 10.0 mi Calm Calm - N/A   Clear
6:55 AM 28.4 °F 23.0 °F 80% 30.13 in 10.0 mi Calm Calm - N/A   Clear
7:15 AM 28.4 °F 23.0 °F 80% 30.15 in 10.0 mi Calm Calm - N/A   Clear
7:35 AM 28.4 °F 24.8 °F 86% 30.15 in 10.0 mi Calm Calm - N/A   Clear
7:55 AM 30.2 °F 24.8 °F 80% 30.15 in 10.0 mi Calm Calm - N/A   Clear
8:15 AM 35.6 °F 28.4 °F 75% 30.15 in 10.0 mi Calm Calm - N/A   Clear
8:35 AM 41.0 °F 30.2 °F 65% 30.15 in 10.0 mi Calm Calm - N/A   Clear
8:55 AM 44.6 °F 33.8 °F 66% 30.15 in 10.0 mi Calm Calm - N/A   Clear
9:15 AM 48.2 °F 26.6 °F 43% 30.15 in 10.0 mi Calm Calm - N/A   Clear
9:35 AM 51.8 °F 24.8 °F 35% 30.16 in 10.0 mi SE 3.5 mph - N/A   Clear
9:55 AM 53.6 °F 24.8 °F 33% 30.17 in 10.0 mi Calm Calm - N/A   Clear
10:15 AM 55.4 °F 23.0 °F 29% 30.17 in 10.0 mi Calm Calm - N/A   Clear
10:35 AM 57.2 °F 24.8 °F 29% 30.17 in 10.0 mi Calm Calm - N/A   Clear
10:55 AM 57.2 °F 24.8 °F 29% 30.17 in 10.0 mi Calm Calm - N/A   Clear
11:15 AM 59.0 °F 24.8 °F 27% 30.17 in 10.0 mi East 6.9 mph - N/A   Clear
11:35 AM 59.0 °F 24.8 °F 27% 30.17 in 10.0 mi East 3.5 mph - N/A   Clear
11:55 AM 60.8 °F 24.8 °F 25% 30.17 in 10.0 mi Calm Calm - N/A   Clear
12:15 PM 62.6 °F 26.6 °F 26% 30.17 in 10.0 mi SSE 4.6 mph - N/A   Clear
12:35 PM 62.6 °F 24.8 °F 24% 30.16 in 10.0 mi South 4.6 mph - N/A   Clear
12:55 PM 64.4 °F 26.6 °F 24% 30.15 in 10.0 mi Calm Calm - N/A   Clear
1:15 PM 64.4 °F 24.8 °F 22% 30.14 in 10.0 mi SE 3.5 mph - N/A   Clear
1:35 PM 66.2 °F 24.8 °F 21% 30.13 in 10.0 mi South 3.5 mph - N/A   Clear
1:55 PM 66.2 °F 24.8 °F 21% 30.12 in 10.0 mi NE 4.6 mph - N/A   Clear
2:15 PM 68.0 °F 26.6 °F 21% 30.11 in 10.0 mi NW 4.6 mph - N/A   Clear
2:35 PM 66.2 °F 26.6 °F 23% 30.11 in 10.0 mi SSE 8.1 mph - N/A   Clear
2:55 PM 68.0 °F 26.6 °F 21% 30.10 in 10.0 mi SSW 9.2 mph - N/A   Clear
3:15 PM 69.8 °F 26.6 °F 20% 30.09 in 10.0 mi SW 9.2 mph - N/A   Clear
3:35 PM 68.0 °F 24.8 °F 20% 30.09 in 10.0 mi SW 11.5 mph - N/A   Clear
3:55 PM 69.8 °F 24.8 °F 18% 30.08 in 10.0 mi West 4.6 mph - N/A   Clear
4:15 PM 69.8 °F 24.8 °F 18% 30.07 in 10.0 mi West 8.1 mph - N/A   Clear
4:35 PM 69.8 °F 26.6 °F 20% 30.06 in 10.0 mi SSE 6.9 mph - N/A   Clear
4:55 PM 69.8 °F 26.6 °F 20% 30.06 in 10.0 mi SW 6.9 mph - N/A   Clear
5:15 PM 69.8 °F 26.6 °F 20% 30.06 in 10.0 mi SW 10.4 mph 16.1 mph N/A   Clear
5:35 PM 66.2 °F 24.8 °F 21% 30.06 in 10.0 mi SSW 11.5 mph - N/A   Clear
5:55 PM 66.2 °F 26.6 °F 23% 30.06 in 10.0 mi South 9.2 mph - N/A   Clear
6:15 PM 64.4 °F 26.6 °F 24% 30.06 in 10.0 mi SSW 6.9 mph - N/A   Clear
6:35 PM 64.4 °F 26.6 °F 24% 30.07 in 10.0 mi SSW 8.1 mph - N/A   Clear
6:55 PM 62.6 °F 28.4 °F 27% 30.07 in 10.0 mi South 4.6 mph - N/A   Clear
7:15 PM 60.8 °F 28.4 °F 29% 30.07 in 10.0 mi SSW 5.8 mph - N/A   Clear
7:35 PM 59.0 °F 28.4 °F 31% 30.07 in 10.0 mi SSW 4.6 mph - N/A   Clear
7:55 PM 60.8 °F 28.4 °F 29% 30.07 in 10.0 mi South 4.6 mph - N/A   Clear
8:15 PM 59.0 °F 28.4 °F 31% 30.06 in 10.0 mi South 3.5 mph - N/A   Clear
8:35 PM 57.2 °F 28.4 °F 33% 30.07 in 10.0 mi Calm Calm - N/A   Clear
8:55 PM 57.2 °F 28.4 °F 33% 30.07 in 10.0 mi South 4.6 mph - N/A   Clear
9:15 PM 57.2 °F 28.4 °F 33% 30.07 in 10.0 mi South 4.6 mph - N/A   Clear
9:35 PM 55.4 °F 28.4 °F 36% 30.08 in 10.0 mi SSW 5.8 mph - N/A   Clear
9:55 PM 55.4 °F 28.4 °F 36% 30.08 in 10.0 mi South 5.8 mph - N/A   Clear
10:15 PM 55.4 °F 30.2 °F 38% 30.09 in 10.0 mi SSW 11.5 mph - N/A   Clear
10:35 PM 57.2 °F 32.0 °F 38% 30.09 in 10.0 mi SSW 11.5 mph 16.1 mph N/A   Clear
10:55 PM 55.4 °F 32.0 °F 41% 30.09 in 10.0 mi South 9.2 mph - N/A   Clear
11:15 PM 55.4 °F 32.0 °F 41% 30.09 in 10.0 mi SSW 9.2 mph - N/A   Clear
11:35 PM 55.4 °F 30.2 °F 38% 30.09 in 10.0 mi SSW 9.2 mph - N/A   Clear
11:55 PM 55.4 °F 30.2 °F 38% 30.10 in 10.0 mi SSW 9.2 mph - N/A   Clear